User: anonymous   Login
Location: Caltech
(34.1382°N, 118.1253°W)
Time: 23:57:02
(UTC-07:00)
Language:

SEDSat Delta rocket - Orbit

View from above orbital plane
View from above orbital plane
View from above satellite
View from above satellite

Ground track
Ground track

The orbit data is extracted from the following two-line orbital elements,

1 25510U 98061C   15085.22027185  .00000904  00000-0  15136-3 0  9995
2 25510 031.4332 126.8030 0330627 065.7525 351.0459 14.36469476860159
Epoch (UTC): 26 March 2015 05:17:11
Eccentricity: 0.0330627
inclination: 31.4332°
perigee height: 534 km
apogee height: 1006 km
right ascension of ascending node: 126.8030°
argument of perigee: 65.7525°
revolutions per day: 14.36469476
mean anomaly at epoch: 351.0459°
orbit number at epoch: 86015

The dashed part of the orbit path shows where the satellite is in the earth's shadow,  

DLR